DC1RS Weather Reports


time (UTC)temp
C
wind
direction
speed
KPH
gust
KPH
rain 1hr
cm
rain 24hr
cm
rain mn
cm
humidity
%
barometer
mb
20260906034840 10 42 0.0 0.0 0.00 0.00 0.00 94 1025.4
20260906034309 10 71 0.0 0.0 0.00 0.00 0.00 94 1025.4
20260906034001 10 71 0.0 0.0 0.00 0.00 0.00 94 1025.4
20260906033210 10 71 0.0 0.0 0.00 0.00 0.00 94 1025.2
20260906032710 10 71 0.0 0.0 0.00 0.00 0.00 93 1025.0
20260906032210 10 71 0.0 0.0 0.00 0.00 0.00 93 1025.3
20260906031640 10 71 0.0 0.0 0.00 0.00 0.00 93 1025.4
20260906031400 10 70 0.0 1.6 0.00 0.00 0.00 93 1025.5
20260906030610 10 71 0.0 0.0 0.00 0.00 0.00 93 1025.2
20260906030040 10 71 0.0 0.0 0.00 0.00 0.00 92 1025.2
20260906025540 10 71 0.0 0.0 0.00 0.00 0.00 92 1025.2
20260906025010 10 71 0.0 1.6 0.00 0.00 0.00 92 1025.1
20260906024702 10 71 0.0 0.0 0.00 0.00 0.00 92 1025.3
20260906023940 10 71 0.0 0.0 0.00 0.00 0.00 92 1025.1
20260906023631 10 83 1.6 3.2 0.00 0.00 0.00 91 1025.2
20260906022840 10 253 0.0 0.0 0.00 0.00 0.00 91 1025.2
20260906022310 10 253 0.0 0.0 0.00 0.00 0.00 92 1025.0
20260906021810 10 258 0.0 0.0 0.00 0.00 0.00 91 1025.2
20260906021241 10 258 0.0 0.0 0.00 0.00 0.00 91 1025.3
20260906020931 10 257 0.0 0.0 0.00 0.00 0.00 90 1025.2
20260906020210 11 257 0.0 0.0 0.00 0.00 0.00 89 1025.4
20260906015710 11 258 0.0 0.0 0.00 0.00 0.00 90 1025.2
20260906015210 11 316 0.0 0.0 0.00 0.00 0.00 89 1025.2
20260906014640 11 317 0.0 0.0 0.00 0.00 0.00 89 1025.0
20260906014140 11 258 0.0 0.0 0.00 0.00 0.00 89 1025.0
20260906013610 11 234 0.0 3.2 0.00 0.00 0.00 90 1025.0
20260906013110 11 221 3.2 3.2 0.00 0.00 0.00 91 1025.0
20260906012610 11 211 0.0 1.6 0.00 0.00 0.00 91 1025.1
20260906012300 11 311 0.0 0.0 0.00 0.00 0.00 90 1024.8
20260906011540 11 311 0.0 0.0 0.00 0.00 0.00 90 1025.2
20260906011010 11 311 0.0 0.0 0.00 0.00 0.00 90 1024.8
20260906010440 11 312 0.0 0.0 0.00 0.00 0.00 90 1024.7
20260906005940 11 313 0.0 0.0 0.00 0.00 0.00 89 1024.7
20260906005659 11 313 0.0 0.0 0.00 0.00 0.00 89 1025.0
20260906004940 11 312 0.0 0.0 0.00 0.00 0.00 88 1024.7
20260906004410 11 312 0.0 0.0 0.00 0.00 0.00 88 1024.8
20260906003910 11 312 0.0 0.0 0.00 0.00 0.00 87 1024.7
20260906003410 11 312 0.0 0.0 0.00 0.00 0.00 87 1024.5
20260906002840 12 312 0.0 0.0 0.00 0.00 0.00 86 1024.7
20260906002340 12 340 0.0 0.0 0.00 0.00 0.00 86 1024.8
20260906002030 12 340 0.0 1.6 0.00 0.00 0.00 85 1024.8
20260906001240 12 341 0.0 1.6 0.00 0.00 0.00 85 1024.7
20260906000740 12 341 1.6 3.2 0.00 0.00 0.00 86 1024.6
20260906000212 12 307 3.2 4.8 0.00 0.00 0.00 86 1024.6
20260905235640 12 323 1.6 3.2 0.00 0.00 0.00 85 1024.7
20260905235401 12 321 1.6 3.2 0.00 0.00 0.00 85 1024.4
20260905234610 12 7 0.0 0.0 0.00 0.00 0.00 85 1024.5
20260905234040 12 48 0.0 3.2 0.00 0.00 0.00 84 1024.4
20260905233539 12 67 0.0 3.2 0.00 0.00 0.00 84 1024.4
20260905233009 13 98 0.0 1.6 0.00 0.00 0.00 83 1024.4
20260905232701 13 96 3.2 11.3 0.00 0.00 0.00 82 1024.4
20260905231909 13 240 0.0 4.8 0.00 0.00 0.00 82 1024.2
20260905231409 13 264 1.6 3.2 0.00 0.00 0.00 81 1024.2
20260905230840 13 219 1.6 3.2 0.00 0.00 0.00 80 1024.2
20260905230310 13 261 1.6 3.2 0.00 0.00 0.00 81 1024.1
20260905230001 13 244 0.0 1.6 0.00 0.00 0.00 80 1024.1
20260905225210 13 221 1.6 3.2 0.00 0.00 0.00 80 1024.2
20260905224710 13 221 0.0 3.2 0.00 0.00 0.00 80 1024.1
20260905224140 13 231 4.8 4.8 0.00 0.00 0.00 82 1024.2
20260905223640 13 221 3.2 3.2 0.00 0.00 0.00 82 1024.1
20260905223329 13 169 0.0 0.0 0.00 0.00 0.00 84 1024.1
20260905222830 13 168 0.0 0.0 0.00 0.00 0.00 83 1023.9
20260905222040 13 167 0.0 0.0 0.00 0.00 0.00 82 1023.9
20260905221800 13 165 0.0 0.0 0.00 0.00 0.00 82 1024.0
20260905221040 13 117 1.6 3.2 0.00 0.00 0.00 81 1023.9
20260905220540 13 143 1.6 1.6 0.00 0.00 0.00 80 1023.9
20260905220010 14 274 0.0 0.0 0.00 0.00 0.00 79 1023.5
20260905215440 14 275 0.0 1.6 0.00 0.00 0.38 78 1023.7
20260905215159 14 281 1.6 3.2 0.00 0.00 0.38 78 1023.5
20260905214410 15 272 1.6 3.2 0.00 0.00 0.38 77 1023.9
20260905213910 15 272 1.6 3.2 0.00 0.00 0.38 76 1023.5
20260905213340 15 267 0.0 1.6 0.00 0.00 0.38 76 1023.5
20260905212810 15 279 1.6 3.2 0.00 0.00 0.38 75 1023.6
20260905212530 15 264 3.2 4.8 0.00 0.00 0.38 75 1023.4
20260905211810 15 256 4.8 9.7 0.00 0.00 0.38 75 1023.3
20260905211240 15 255 4.8 4.8 0.00 0.00 0.38 76 1023.2
20260905210740 15 217 3.2 4.8 0.00 0.00 0.38 76 1023.0
20260905210239 15 203 3.2 4.8 0.00 0.00 0.38 76 1023.2
20260905210000 15 219 1.6 3.2 0.00 0.00 0.38 75 1023.1
20260905205209 15 289 0.0 3.2 0.00 0.00 0.38 76 1023.1
20260905204709 15 293 1.6 4.8 0.00 0.00 0.38 77 1022.8
20260905204209 15 309 3.2 6.4 0.00 0.00 0.38 76 1022.9
20260905203640 15 329 0.0 1.6 0.00 0.00 0.38 76 1022.8
20260905203359 15 302 1.6 1.6 0.00 0.00 0.38 76 1022.9
20260905202610 15 269 3.2 4.8 0.00 0.00 0.38 75 1022.6
20260905202040 15 273 0.0 1.6 0.00 0.00 0.38 75 1022.7
20260905201801 15 291 3.2 4.8 0.00 0.00 0.38 76 1022.7
20260905201010 15 312 4.8 4.8 0.00 0.00 0.38 77 1023.0
20260905200441 16 299 1.6 1.6 0.00 0.00 0.38 76 1022.6
20260905195939 16 314 1.6 3.2 0.00 0.00 0.38 75 1022.4
20260905195439 16 314 1.6 3.2 0.00 0.00 0.38 74 1022.5
20260905195200 16 305 0.0 4.8 0.00 0.00 0.38 74 1022.6
20260905194409 16 255 1.6 3.2 0.00 0.00 0.38 74 1022.4
20260905193909 16 259 1.6 3.2 0.00 0.00 0.38 74 1022.5
20260905193409 16 220 3.2 4.8 0.00 0.00 0.38 74 1022.4
20260905192839 16 222 1.6 1.6 0.00 0.00 0.38 74 1022.2
20260905192339 16 284 1.6 3.2 0.00 0.00 0.38 72 1022.3
20260905191809 17 301 0.0 1.6 0.00 0.00 0.38 72 1022.3
20260905191239 17 301 0.0 1.6 0.00 0.00 0.38 71 1022.0
20260905190739 17 301 0.0 1.6 0.00 0.00 0.38 71 1022.2
20260905190209 17 302 0.0 0.0 0.00 0.00 0.38 70 1022.2
20260905185639 17 294 1.6 3.2 0.00 0.00 0.38 69 1022.1
20260905185359 17 315 1.6 3.2 0.00 0.00 0.38 67 1022.0
20260905184609 18 272 1.6 3.2 0.00 0.00 0.38 66 1021.9
20260905184040 18 285 3.2 4.8 0.00 0.00 0.38 65 1022.0
20260905183510 18 309 3.2 11.3 0.00 0.00 0.38 66 1021.5
20260905183010 18 298 0.0 4.8 0.00 0.00 0.38 67 1021.6
20260905182701 18 278 3.2 4.8 0.00 0.00 0.38 66 1021.6
20260905181910 18 285 1.6 6.4 0.00 0.00 0.38 66 1021.3
20260905181410 18 304 1.6 9.7 0.00 0.00 0.38 66 1021.4
20260905180840 18 281 1.6 4.8 0.00 0.00 0.38 66 1021.4
20260905180340 19 278 4.8 11.3 0.00 0.00 0.38 67 1021.1
20260905180100 19 302 8.0 9.7 0.00 0.00 0.38 67 1021.2
20260905175310 20 311 6.4 6.4 0.00 0.00 0.38 65 1021.0
20260905174810 20 269 3.2 6.4 0.00 0.00 0.38 64 1020.8
20260905174310 21 314 3.2 4.8 0.00 0.00 0.38 62 1020.9
20260905173740 21 294 4.8 4.8 0.00 0.00 0.38 59 1020.9
20260905173431 21 272 3.2 6.4 0.00 0.00 0.38 58 1020.8
20260905172710 21 297 3.2 4.8 0.00 0.00 0.38 57 1020.7
20260905172210 21 241 1.6 4.8 0.00 0.00 0.38 56 1020.6
20260905171640 22 299 9.7 12.9 0.00 0.00 0.38 55 1020.4
20260905171110 22 310 1.6 9.7 0.00 0.00 0.38 54 1020.6
20260905170610 22 272 4.8 12.9 0.00 0.00 0.38 53 1020.4
20260905170040 23 256 4.8 14.5 0.00 0.00 0.38 52 1020.2
20260905165800 23 258 6.4 14.5 0.00 0.00 0.38 52 1020.3
20260905165010 23 251 8.0 17.7 0.00 0.00 0.38 51 1020.3
20260905164440 23 272 8.0 16.1 0.00 0.00 0.38 51 1019.9
20260905163940 23 262 14.5 17.7 0.00 0.00 0.38 51 1020.1
20260905163410 23 252 6.4 17.7 0.00 0.00 0.38 51 1020.0
20260905163130 23 303 14.5 22.5 0.00 0.00 0.38 50 1020.0
20260905162410 23 233 9.7 17.7 0.00 0.00 0.38 50 1020.0
20260905161840 23 243 9.7 17.7 0.00 0.00 0.38 50 1019.9
20260905161310 23 302 9.7 24.1 0.00 0.00 0.38 51 1019.8
20260905160810 23 264 16.1 25.7 0.00 0.00 0.38 49 1019.7
20260905160310 23 332 4.8 16.1 0.00 0.00 0.38 50 1019.6
20260905160031 23 316 6.4 20.9 0.00 0.00 0.38 50 1019.7
20260905155240 23 312 17.7 24.1 0.00 0.00 0.38 50 1019.6
20260905154710 23 309 9.7 25.7 0.00 0.00 0.38 50 1019.4
20260905154210 23 273 12.9 33.8 0.00 0.00 0.38 49 1019.4
20260905153710 23 296 9.7 29.0 0.00 0.00 0.38 50 1019.5
20260905153430 23 305 17.7 24.1 0.00 0.00 0.38 50 1019.4
20260905152640 23 301 16.1 25.7 0.00 0.00 0.38 50 1019.4
20260905152140 23 291 3.2 25.7 0.00 0.00 0.38 50 1019.4
20260905151610 23 263 14.5 25.7 0.00 0.00 0.38 51 1019.4
20260905151110 23 259 14.5 22.5 0.00 0.00 0.38 52 1019.2
20260905150540 23 246 9.7 29.0 0.00 0.00 0.38 52 1019.2
20260905150300 24 299 9.7 20.9 0.00 0.00 0.38 52 1019.2
20260905145539 23 261 6.4 17.7 0.00 0.00 0.38 53 1019.3
20260905145009 23 281 17.7 33.8 0.00 0.00 0.38 51 1019.2
20260905144439 23 291 12.9 25.7 0.00 0.00 0.38 52 1019.2
20260905143939 23 196 6.4 24.1 0.00 0.00 0.38 52 1019.4
20260905143631 23 224 8.0 25.7 0.00 0.00 0.38 52 1019.5
20260905142840 24 276 17.7 24.1 0.00 0.00 0.38 51 1019.4
20260905142310 24 269 14.5 33.8 0.00 0.00 0.38 52 1019.3
20260905141810 24 268 16.1 25.7 0.00 0.00 0.38 53 1019.5
20260905141240 24 256 12.9 24.1 0.00 0.00 0.38 52 1019.4
20260905140740 24 222 11.3 17.7 0.00 0.00 0.38 53 1019.7
20260905140210 23 304 9.7 16.1 0.00 0.00 0.38 55 1019.6
20260905135640 23 262 4.8 11.3 0.00 0.00 0.38 55 1019.6
20260905135140 23 252 8.0 14.5 0.00 0.00 0.38 55 1019.7
20260905134831 23 303 11.3 14.5 0.00 0.00 0.38 53 1019.6
20260905134042 23 287 9.7 17.7 0.00 0.00 0.38 55 1019.9
20260905133540 23 277 6.4 20.9 0.00 0.00 0.38 54 1019.8
20260905133010 23 281 6.4 22.5 0.00 0.00 0.38 54 1019.8
20260905132440 23 242 9.7 27.4 0.00 0.00 0.38 53 1019.8
20260905132131 23 272 9.7 14.5 0.00 0.00 0.38 59 1020.0
20260905131410 23 243 11.3 14.5 0.00 0.00 0.38 58 1020.3
20260905130840 23 257 11.3 20.9 0.00 0.00 0.38 59 1020.4
20260905130340 23 286 4.8 14.5 0.00 0.00 0.38 60 1020.2
20260905130030 23 277 8.0 16.1 0.00 0.00 0.38 60 1020.4
20260905125500 22 263 4.8 12.9 0.00 0.00 0.38 61 1020.2
20260905124739 23 263 16.1 22.5 0.00 0.00 0.38 61 1020.4
20260905124209 23 295 11.3 17.7 0.00 0.00 0.38 61 1020.2
20260905123640 23 287 8.0 11.3 0.00 0.00 0.38 65 1020.3
20260905123140 22 311 8.0 11.3 0.00 0.00 0.38 68 1020.5
20260905122831 22 312 4.8 6.4 0.00 0.00 0.38 67 1020.2
20260905122040 22 305 9.7 11.3 0.00 0.00 0.38 68 1020.5
20260905121510 21 260 6.4 11.3 0.00 0.00 0.38 70 1020.5
20260905121010 21 165 3.2 6.4 0.00 0.00 0.38 71 1020.6
20260905120440 21 295 4.8 11.3 0.00 0.00 0.38 69 1020.8
20260905115939 21 229 1.6 3.2 0.00 0.00 0.38 70 1020.6
20260905115630 21 282 3.2 4.8 0.00 0.00 0.38 70 1020.9
20260905114839 21 303 6.4 9.7 0.00 0.00 0.38 73 1021.1
20260905114339 20 331 1.6 4.8 0.00 0.00 0.38 72 1021.0
20260905113810 20 277 1.6 6.4 0.00 0.00 0.38 72 1021.1
20260905113310 20 11 3.2 4.8 0.00 0.00 0.38 74 1021.1
20260905113031 20 312 1.6 9.7 0.00 0.00 0.38 75 1021.1
20260905112240 20 328 3.2 12.9 0.00 0.00 0.38 74 1021.2
20260905111740 20 322 4.8 6.4 0.00 0.00 0.38 73 1021.1
20260905111210 20 333 4.8 12.9 0.00 0.00 0.38 76 1021.3
20260905110710 20 323 3.2 4.8 0.00 0.00 0.38 75 1020.9
20260905110430 19 242 8.0 11.3 0.00 0.00 0.38 75 1021.1
20260905105640 19 308 0.0 6.4 0.00 0.00 0.38 76 1021.1
20260905105139 19 234 3.2 9.7 0.00 0.00 0.38 75 1021.2
20260905104901 18 324 1.6 3.2 0.00 0.00 0.38 75 1021.2
20260905104110 18 303 6.4 11.3 0.00 0.00 0.38 76 1021.4
20260905103540 18 298 3.2 9.7 0.00 0.00 0.38 77 1021.3
20260905103010 19 252 6.4 11.3 0.00 0.00 0.38 77 1021.2
20260905102440 19 328 4.8 11.3 0.00 0.00 0.38 78 1021.2
20260905102201 18 294 4.8 11.3 0.00 0.00 0.38 78 1021.1
20260905101410 18 319 1.6 6.4 0.00 0.00 0.38 77 1021.3
20260905100840 18 316 1.6 4.8 0.00 0.00 0.38 80 1021.2
20260905100340 18 281 6.4 12.9 0.00 0.00 0.38 77 1021.2
20260905095810 18 242 6.4 14.5 0.00 0.00 0.38 76 1021.1
20260905095501 18 333 3.2 12.9 0.00 0.00 0.38 77 1021.1
20260905094710 18 294 3.2 11.3 0.00 0.00 0.38 79 1021.3
20260905094210 17 267 4.8 9.7 0.00 0.00 0.38 78 1021.1
20260905093900 17 263 3.2 9.7 0.00 0.00 0.38 80 1021.4
20260905093110 17 284 9.7 16.1 0.00 0.00 0.38 81 1021.4
20260905092540 17 239 3.2 11.3 0.00 0.00 0.38 83 1021.6
20260905092010 17 228 3.2 6.4 0.00 0.00 0.38 82 1021.4
20260905091510 17 261 6.4 11.3 0.00 0.00 0.38 83 1021.7
20260905091231 17 284 4.8 6.4 0.00 0.00 0.38 83 1021.6
20260905090440 17 294 1.6 3.2 0.00 0.00 0.38 83 1021.9
20260905085939 17 291 6.4 6.4 0.00 0.00 0.38 81 1021.6
20260905085410 17 207 0.0 4.8 0.00 0.00 0.38 82 1021.4
20260905084840 17 265 1.6 4.8 0.00 0.00 0.38 84 1021.5
20260905084600 17 217 1.6 4.8 0.00 0.00 0.38 85 1021.5
20260905083810 16 218 6.4 9.7 0.00 0.00 0.38 86 1021.4
20260905083240 16 192 4.8 9.7 0.00 0.00 0.38 85 1021.5
20260905082710 16 216 3.2 3.2 0.00 0.00 0.38 86 1021.2
20260905082139 16 181 0.0 6.4 0.00 0.00 0.38 85 1021.1
20260905081829 16 192 0.0 6.4 0.00 0.00 0.38 88 1021.2
20260905081039 15 154 0.0 0.0 0.00 0.00 0.38 90 1021.4
20260905080540 15 152 0.0 1.6 0.00 0.00 0.38 91 1021.2
20260905080039 15 113 0.0 0.0 0.00 0.00 0.38 90 1021.1
20260905075539 15 106 0.0 1.6 0.00 0.00 0.38 90 1021.2
20260905075231 15 166 0.0 0.0 0.00 0.00 0.38 91 1021.0
20260905074440 15 172 1.6 3.2 0.00 0.00 0.38 92 1021.0
20260905073939 15 213 1.6 3.2 0.00 0.00 0.38 91 1021.0
20260905073410 14 208 0.0 4.8 0.00 0.00 0.38 91 1021.2
20260905072840 14 276 0.0 1.6 0.00 0.00 0.38 93 1021.0
20260905072559 14 313 3.2 4.8 0.03 0.00 0.38 93 1021.0
20260905071810 14 247 1.6 6.4 0.03 0.00 0.38 92 1021.2
20260905071240 14 231 3.2 4.8 0.03 0.00 0.38 93 1020.8
20260905070740 14 241 1.6 6.4 0.03 0.00 0.38 93 1021.0
20260905070239 14 210 4.8 9.7 0.03 0.00 0.38 92 1021.0
20260905065959 14 217 4.8 9.7 0.03 0.00 0.38 92 1020.5
20260905065209 14 245 1.6 4.8 0.03 0.00 0.38 94 1020.4
20260905064639 14 263 1.6 4.8 0.03 0.00 0.38 94 1020.3
20260905064139 13 250 4.8 6.4 0.05 0.00 0.38 94 1020.1
20260905063610 13 306 1.6 3.2 0.05 0.00 0.38 95 1020.2
20260905063110 13 247 1.6 6.4 0.05 0.00 0.38 95 1019.9
20260905062610 13 247 3.2 3.2 0.05 0.00 0.36 96 1019.9
20260905062040 13 254 4.8 4.8 0.08 0.00 0.36 95 1019.9
20260905061800 13 232 1.6 3.2 0.10 0.00 0.36 96 1019.7
20260905061040 13 245 6.4 11.3 0.13 0.00 0.36 96 1019.8
20260905060510 13 218 6.4 6.4 0.13 0.00 0.36 96 1019.4
20260905060010 13 197 0.0 0.0 0.13 0.00 0.36 95 1019.1
20260905055510 13 126 0.0 0.0 0.18 0.00 0.36 95 1018.9
20260905055230 13 128 3.2 3.2 0.18 0.00 0.33 95 1019.0
20260905054440 13 189 3.2 3.2 0.23 0.00 0.33 94 1019.3
20260905053940 13 150 4.8 4.8 0.25 0.00 0.33 94 1018.8
20260905053410 13 175 3.2 3.2 0.25 0.00 0.30 93 1018.8
20260905052840 13 109 1.6 3.2 0.23 0.00 0.30 93 1018.7
20260905052339 13 213 0.0 0.0 0.23 0.00 0.28 92 1018.9
20260905052031 13 199 0.0 1.6 0.20 0.00 0.25 91 1019.1
20260905051240 13 232 1.6 1.6 0.20 0.00 0.23 91 1019.1
20260905050710 14 352 3.2 9.7 0.23 0.00 0.23 90 1018.4
20260905050209 14 22 4.8 6.4 0.20 0.00 0.20 90 1018.5
20260905045639 14 21 3.2 4.8 0.15 0.00 0.15 88 1018.9
20260905045359 14 337 0.0 0.0 0.15 0.00 0.15 88 1019.0
20260905044609 15 323 4.8 9.7 0.10 0.00 0.10 86 1019.0
20260905044109 15 10 6.4 9.7 0.08 0.00 0.08 85 1018.9
20260905043540 15 17 11.3 14.5 0.05 0.00 0.05 85 1018.4
20260905043229 15 27 8.0 12.9 0.05 0.00 0.05 86 1018.7
20260905042440 15 307 6.4 12.9 0.05 0.00 0.05 84 1018.7
20260905041940 16 336 6.4 14.5 0.05 0.00 0.05 82 1018.4
20260905041439 16 275 9.7 17.7 0.03 0.00 0.03 79 1018.7
20260905040909 17 314 14.5 22.5 0.00 0.00 0.00 75 1018.2
20260905040631 17 317 6.4 14.5 0.00 0.00 0.00 71 1017.6
20260905035909 18 3 14.5 33.8 0.00 0.00 0.00 68 1017.3
20260905035409 18 300 9.7 24.1 0.00 0.00 0.00 66 1017.3